星链-32223 (STARLINK-32223)

导读 | 豆包AI

STARLINK-32223(星链-32223)是美国太空探索技术公司(SpaceX)星链计划中的低轨通信卫星,属于Starlink v2.0 mini平台,于2024年8月4日发射,目前保持在轨状态。该卫星运行在近地轨道,轨道倾角约53.16°,近地点约474.5公里,旨在为全球提供高速宽带互联网服务,尤其助力偏远地区网络覆盖,是星链全球卫星互联网组网的重要组成部分。

基本信息
目录编号:
60373
目录名称:
STARLINK-32223
国际标识:
2024-138U
轨道中心:
EARTH
卫星名称:
星链-32223 (STARLINK-32223)
卫星全名:
星链-32223 (STARLINK-32223)
卫星状态:
在轨 (已飞行635 天)
发射日期:
2024-08-04 UTC
国别 :
美国 (US)
星等 :
--
轨道信息
数据来源 国际轨道数据
星历时间: 2026-04-30T14:28:13+0800
21小时前
查看轨道信息
半长轴: 6853.36km
偏心率: 0.0001256
轨道倾角: 53.160°
近地点辐角 83.413°
升交点赤经 70.094°
平近点角 276.701°
近地点: 474.362km
远地点: 476.084km
周期: 94.105分钟
每日圈数: 15.301976
详细信息
卫星平台:
Starlink v2.0 mini
运营商:
太空探索技术公司
运营商所在国:
美国
制造商(研发单位):
太空探索技术公司
制造商所在国:
美国
使用方式:
暂无
卫星简介
星链(Starlink)计划是由太空探索技术公司(SpaceX)提出的一个巨型低轨卫星互联网星座项目,计划在2019年至2024年间在太空搭建由约1.2万颗卫星组成的“星链”网络,其中1584颗将部署在地球上空550千米处的近地轨道,并从2020年开始工作。该卫星仍在工作。
2D轨道图
3D轨道图
轨道高度分析图
轨道倾角分析图
轨道综合分析图
查看轨道综合分析图